Simultaneous Nadir Overpasses (SNOs) Predictions

Prediction of SNOs between NOAA-19 and TERRA Satellite Orbit:

Table of predicted SNOs for the next 14.0 days since TLE Epoch: 2/22/2025
Index Date (NOAA-19) Time (NOAA-19) Lat,Lon (NOAA-19) SZA (NOAA-19 ) Date (TERRA) Time (TERRA) Lat,Lon (TERRA) SZA (TERRA ) Distance(km) Time Diff (sec)
1 02/23/2025 08:16:45 -65.83, 0.15 68.76 02/23/2025 08:17:16 -65.84, 0.12 68.72 1.46 31
2 02/23/2025 09:06:38 62.40, 170.69 113.93 02/23/2025 09:05:37 62.40, 170.69 113.82 0.48 61
3 02/25/2025 11:15:23 -66.63, -45.30 70.09 02/25/2025 11:15:50 -66.62, -45.27 70.03 1.60 27
4 02/25/2025 12:05:16 63.20, 125.45 112.64 02/25/2025 12:04:11 63.20, 125.45 112.54 0.30 65
5 02/27/2025 14:13:48 -66.74, -89.98 70.87 02/27/2025 14:14:12 -66.75, -90.02 70.85 2.67 24
6 02/27/2025 15:03:49 63.73, 80.41 111.55 02/27/2025 15:02:40 63.73, 80.40 111.43 0.68 69
7 03/01/2025 17:12:28 -67.66,-135.65 72.33 03/01/2025 17:12:47 -67.65,-135.60 72.28 2.73 19
8 03/01/2025 18:02:16 63.94, 35.66 110.70 03/01/2025 18:01:03 63.96, 35.60 110.55 3.45 73
9 03/03/2025 20:10:56 -67.95, 179.43 73.29 03/03/2025 20:11:11 -67.95, 179.45 73.26 0.68 15
10 03/03/2025 20:58:09 55.59, -2.76 116.52 03/03/2025 20:56:56 55.46, -3.50 116.06 48.85 73
11 03/05/2025 23:09:28 -68.47, 134.20 74.44 03/05/2025 23:09:38 -68.46, 134.25 74.40 2.58 10



Historial Predications of SNOs between NOAA-19 and TERRA
